Regional Weather Roundup
Issued by NWS Kansas City/Pleasant Hill, MO

Home | Current Version | Previous Version | Text Only | Print | Product List | Glossary On
Versions: 1 2 3 4 5 6 7 8 9 10 11 12 13 14 15 16 17 18 19 20 21 22 23 24 25 26 27 28 29 30 31 32 33 34 35 36 37 38 39 40 41 42 43 44 45 46 47 48 49 50
000
ASUS43 KEAX 191104
RWREAX

WEATHER ROUNDUP FOR EASTERN KANSAS AND NORTHWEST MISSOURI
NATIONAL WEATHER SERVICE KANSAS CITY/PLEASANT HILL MO
600 AM CDT SAT APR 19 2014

KSZ040-057-103>105-MOZ028-029-037-043-191200-
...KANSAS CITY METROPOLITAN AREA...

CITY           SKY/WX    TMP DP  RH WIND       PRES   REMARKS
K.C. INTL      CLEAR     52  39  61 SE12      30.14S
K.C. DOWNTOWN  CLEAR     55  39  54 SW6       30.13F
LEES SUMMIT    CLEAR     52  39  61 SE8       30.15S
OLATHE - IXD   CLEAR     49  39  68 SE7       30.14F
OLATHE - OJC   CLEAR     50  39  66 SE6       30.14S
LAWRENCE       CLEAR     46  39  76 SE6       30.13S

$$

MOZ001>008-011>017-020>025-030>033-038>040-044>046-053-054-191200-
...NORTHERN AND CENTRAL MISSOURI...

CITY           SKY/WX    TMP DP  RH WIND       PRES   REMARKS
ST. JOSEPH     CLEAR     49  39  68 S7        30.12F
MOSBY          FAIR      41  39  93 CALM      30.15S
WHITEMAN AFB   CLEAR     52  39  61 SE5       30.18R
CLINTON        CLEAR     52  43  71 SE5       30.18R
SEDALIA        CLEAR     51  41  68 SE8       30.19R
WARSAW         NOT AVBL
MARSHALL         N/A     52  43  71 E5        30.20R
CHILLICOTHE      N/A     50  39  66 S5        30.18S
MOBERLY        CLEAR     50  39  66 SE8       30.22R
KIRKSVILLE     CLEAR     45  35  68 E7        30.21R

$$

MOZ041-047>049-056>058-063>065-088>090-097-191200-
...EASTERN AND SOUTHERN MISSOURI...

CITY           SKY/WX    TMP DP  RH WIND       PRES   REMARKS
ST. LOUIS INTL PTCLDY    50  38  63 E7        30.26R
SPIRIT OF STL  CLEAR     40  38  93 CALM      30.25R
COLUMBIA       CLEAR     50  40  68 SE8       30.22R
JEFFERSON CITY CLEAR     45  40  82 SE7       30.22S
MEXICO         CLEAR     43  39  87 SE3       30.22S
HANNIBAL       CLEAR     48  34  57 E9        30.25S
ROLLA          CLEAR     50  41  71 SE9       30.21S
LEBANON        CLEAR     50  41  71 SE6       30.22R
OSAGE BEACH    CLEAR     52  37  58 SE5       30.23R
SPRINGFIELD    CLEAR     49  40  71 SE7       30.20R
BRANSON        CLEAR     50  41  71 SE7       30.22S
NEVADA         CLEAR     50  43  76 S8        30.18S
JOPLIN         CLEAR     52  42  69 S9        30.18R
WEST PLAINS    CLEAR     43  38  82 CALM      30.23R

$$

IAZ060-094-KSZ022-034>040-054-083-096-NEZ052-066-093-191200-
...KANSAS...SOUTHEAST NEBRASKA AND IOWA...

CITY           SKY/WX    TMP DP  RH WIND       PRES   REMARKS
TOPEKA         CLEAR     52  41  66 S7        30.12R
MANHATTAN      CLEAR     51  40  65 CALM      30.08S
EMPORIA        CLEAR     47  40  76 S9        30.11S HAZE
CHANUTE        CLEAR     46  40  79 SE7       30.14R
WICHITA        PTCLDY    47  40  76 S7        30.09S
OMAHA          PTCLDY    55  41  59 S16       30.05R
LINCOLN        CLEAR     54  39  57 S14       30.03R
FALLS CITY     CLEAR     50  41  71 S10       30.08F
LAMONI         CLEAR     49  37  63 S8        30.14F
DES MOINES     PTCLDY    51  33  50 SE9       30.16S

$$




USA.gov is the U.S. government's official web portal to all federal, state and local government web resources and services.